SCP
0 0 0 0 0 0 0 0 0 0 0 0 0 0 0 0 0 0 0 0 0 0 0 0 0 0 0 0 0 0 0 0 0 0 0 0 0 0 0 0 0 0 0
0 0 0 0 0 0 0 0 0 0 0 0 0 0 0 0 0 0 0 0 0 0 0 0 0 0 0 0 0 0 0 0 0 0 0 0 0 0 0 0 0 0 0
0 0 0 0 0 0 0 0 0 0 0 0 0 0 0 0 0 0 0 0 0 0 0 0 0 0 0 0 0 0 0 0 0 0 0 0 0 0 0 0 0 0 0
0 0 0 0 0 0 0 0 0 0 0 0 0 0 0 0 0 0 0 0 0 0 0 0 0 0 0 0 0 0 0 0 0 0 0 0 0 0 0 0 0 0 0
0 0 0 0 0 0 0 0 0 0 0 0 0 0 0 0 0 0 0 0 0 0 0 0 0 0 0 0 0 0 0 0 0 0 0 0 0 0 0 0 0 0 0
0 0 0 0 0 0 0 0 0 0 0 0 0 0 0 0 0 0 0 0 0 0 0 0 0 0 0 0 0 0 0 0 0 0 0 0 0 0 0 0 0 0 0
0 0 0 0 0 0 0 0 0 0 0 0 0 0 0 0 0 0 0 0 0 0 0 0 0 0 0 0 0 0 0 0 0 0 0 0 0 0 0 0 0 0 0
0 0 0 0 0 0 0 0 0 0 0 0 0 0 0 0 0 0 0 0 0 0 0 0 0 0 0 0 0 0 0 0 0 0 0 0 0 0 0 0 0 0 0
0 0 0 0 0 0 0 0 0 0 0 0 0 0 0 0 0 0 0 0 0 0 0 0 0 0 0 0 0 0 0 0 0 0 0 0 0 0 0 0 0 0 0
0 0 0 0 0 0 0 0 0 0 0 0 0 0 0 0 0 0 0 0 0 0 0 0 0 0 0 0 0 0 0 0 0 0 0 0 0 0 0 0 0 0 0
0 0 0 0 0 0 0 0 0 0 0 0 0 0 0 0 0 0 0 0 0 0 0 0 0 0 0 0 0 0 0 0 0 0 0 0 0 0 0 0 0 0 0
0 0 0 0 0 0 0 0 0 0 0 0 0 0 0 0 0 0 0 0 0 0 0 0 0 0 0 0 0 0 0 0 0 0 0 0 0 0 0 0 0 0 0
0 0 0 0 0 0 0 0 0 0 0 0 0 0 0 0 0 0 0 0 0 0 0 0 0 0 0 0 0 0 0 0 0 0 0 0 0 0 0 0 0 0 0
0 0 0 0 0 0 0 0 0 0 0 0 0 0 0 0 0 0 0 0 0 0 0 0 0 0 0 0 0 0 0 0 0 0 0 0 0 0 0 0 0 0 0
0 0 0 0 0 0 0 0 0 0 0 0 0 0 0 0 0 0 0 0 0 0 0 0 0 0 0 0 0 0 0 0 0 0 0 0 0 0 0 0 0 0 0
0 0 0 0 0 0 0 0 0 0 0 0 0 0 0 0 0 0 0 0 0 0 0 0 0 0 0 0 0 0 0 0 0 0 0 0 0 0 0 0 0 0 0
0 0 0 0 0 0 0 0 0 0 0 0 0 0 0 0 0 0 0 0 0 0 0 0 0 0 0 0 0 0 0 0 0 0 0 0 0 0 0 0 0 0 0
0 0 0 0 0 0 0 0 0 0 0 0 0 0 0 0 0 0 0 0 0 0 0 0 0 0 0 0 0 0 0 0 0 0 0 0 0 0 0 0 0 0 0
0 0 0 0 0 0 0 0 0 0 0 0 0 0 0 0 0 0 0 0 0 0 0 0 0 0 0 0 0 0 0 0 0 0 0 0 0 0 0 0 0 0 0
0 0 0 0 0 0 0 0 0 0 0 0 0 0 0 0 0 0 0 0 0 0 0 0 0 0 0 0 0 0 0 0 0 0 0 0 0 0 0 0 0 0 0
0 0 0 0 0 0 0 0 0 0 0 0 0 0 0 0 0 0 0 0 0 0 0 0 0 0 0 0 0 0 0 0 0 0 0 0 0 0 0 0 0 0 0
0 0 0 0 0 0 0 0 0 0 0 0 0 0 0 0 0 0 0 0 0 0 0 0 0 0 0 0 0 0 0 0 0 0 0 0 0 0 0 0 0 0 0
0 0 0 0 0 0 0 0 0 0 0 0 0 0 0 0 0 0 0 0 0 0 0 0 0 0 0 0 0 0 0 0 0 0 0 0 0 0 0 0 0 0 0
0 0 0 0 0 0 0 0 0 0 0 0 0 0 0 0 0 0 0 0 0 0 0 0 0 0 0 0 0 0 0 0 0 0 0 0 0 0 0 0 0 0 0
0 0 0 0 0 0 0 0 0 0 0 0 0 0 0 0 0 0 0 0 0 0 0 0 0 0 0 0 0 0 0 0 0 0 0 0 0 0 0 0 0 0 0
0 0 0 0 0 0 0 0 0 0 0 0 0 0 0 0 0 0 0 0 0 0 0 0 0 0 0 0 0 0 0 0 0 0 0 0 0 0 0 0 0 0 0
Wind_Speed
5 5 5 5 5 5 5 5 5 4 3 3 2 2 2 2 2 1 1 0 1 1 1 2 2 2 3 4 4 3 4 4 3 3 4 4 6 7 7 7 7 9 10
4 4 4 4 4 4 4 4 4 3 3 2 1 1 0 1 1 2 2 2 2 2 2 2 2 2 2 4 3 3 2 3 3 3 2 2 3 4 8 6 7 8 7
5 5 5 4 4 4 5 4 4 3 3 2 2 2 3 2 3 3 3 3 3 3 3 3 2 2 2 2 3 3 3 3 2 2 3 2 4 2 3 5 6 6 6
5 5 6 5 5 5 5 5 4 4 3 3 3 2 1 1 2 2 2 4 4 4 4 3 3 2 1 2 3 2 2 2 2 2 2 3 2 2 2 2 2 5 6
7 7 7 7 6 6 5 5 4 3 3 3 3 3 2 2 2 2 3 4 4 4 4 3 3 2 2 2 2 2 2 2 2 2 2 2 2 2 2 2 1 1 2
6 6 6 5 4 4 4 3 3 3 3 3 3 3 4 3 3 3 3 3 3 3 4 3 3 3 3 3 2 2 2 2 2 2 2 1 1 1 1 2 2 2 2
5 5 5 5 4 3 2 2 2 2 3 2 2 3 4 4 4 4 4 4 3 3 4 3 3 3 4 4 3 2 2 2 2 2 1 1 1 1 1 2 2 2 1
4 4 5 4 2 1 1 2 1 1 1 2 3 3 3 3 3 4 4 4 4 4 5 5 4 5 5 4 3 3 3 2 2 2 2 1 1 1 1 2 2 1 1
4 3 3 3 3 3 2 2 2 0 2 2 3 3 3 3 4 4 4 4 4 4 5 5 5 5 5 5 4 3 4 3 3 3 3 2 1 1 2 2 2 3 3
3 4 4 3 3 3 2 2 1 1 2 2 2 2 3 3 4 4 4 5 5 4 5 5 5 5 5 6 5 5 5 4 4 3 3 3 2 2 2 2 2 2 3
5 4 3 3 2 2 1 1 1 1 2 3 3 3 4 4 4 3 4 5 5 5 5 6 6 6 6 6 5 6 6 6 6 5 5 5 4 3 2 2 2 2 2
5 4 3 2 1 1 1 1 2 2 3 3 3 4 4 4 4 5 6 5 6 6 6 6 6 6 6 6 6 7 7 7 8 7 6 6 4 4 3 3 3 3 3
4 2 1 0 0 1 2 2 3 3 3 3 3 4 5 5 6 6 6 6 6 6 6 6 6 7 7 7 7 7 7 8 8 8 7 7 6 6 4 4 4 4 3
4 2 1 1 2 2 2 3 3 3 3 3 4 5 6 6 7 7 7 7 7 7 7 7 7 7 7 7 7 7 8 8 8 8 8 8 8 8 7 5 6 5 4
3 2 2 2 3 3 3 3 3 4 4 4 5 6 7 6 6 6 7 7 7 8 7 7 7 7 6 7 7 7 8 8 8 8 8 9 11 11 9 6 6 6 5
3 2 2 2 3 3 3 3 4 5 4 5 6 6 6 6 6 7 7 7 7 7 7 7 7 7 8 9 10 8 6 6 7 8 8 8 10 12 14 13 11 10 8
3 2 2 3 3 3 3 3 4 5 5 5 6 6 6 7 7 8 7 7 7 7 7 7 7 8 9 13 13 13 7 7 7 7 7 8 9 10 8 10 12 12 12
3 2 2 2 3 3 3 3 4 5 5 5 6 6 7 7 7 7 8 8 7 7 7 8 8 8 10 13 13 14 9 7 8 8 8 8 7 8 8 8 7 6 6
3 3 3 3 2 3 3 3 4 5 5 6 6 7 7 8 8 9 9 8 7 7 7 7 7 8 10 12 13 12 6 6 8 8 8 9 8 10 12 9 8 6 5
2 2 2 1 2 3 3 3 5 5 6 7 7 7 7 8 9 9 9 7 7 8 7 7 7 8 9 11 13 12 5 6 6 6 7 11 11 11 13 9 9 8 6
2 2 1 1 3 4 3 4 5 6 7 7 7 8 8 8 9 8 7 7 7 7 7 7 7 7 8 10 12 12 6 6 6 5 5 5 12 13 14 11 8 10 8
1 1 1 3 4 3 3 4 6 6 6 7 8 8 8 8 8 8 8 7 7 7 7 6 7 5 6 7 8 10 10 8 6 5 4 5 9 12 13 10 9 11 9
2 2 2 3 4 4 3 5 6 6 6 7 8 9 9 8 8 7 8 7 6 5 5 5 5 5 4 5 7 8 8 9 5 4 6 6 9 10 9 11 12 10 6
2 2 1 2 4 4 4 5 6 5 6 7 8 8 8 9 8 6 5 5 5 5 5 5 5 5 4 4 3 3 2 4 4 3 4 4 6 6 6 7 7 5 6
2 2 2 3 4 4 5 5 5 5 6 7 8 8 7 8 8 7 6 6 5 5 5 5 4 4 5 5 6 3 2 2 3 3 2 2 2 3 3 3 4 4 5
3 2 2 3 4 4 4 5 4 5 6 7 7 7 7 7 7 7 7 8 7 8 8 8 6 5 6 8 7 4 3 4 5 4 3 3 3 4 5 5 5 5 5
Wind_Direction
117 117 116 110 101 88 82 79 77 63 59 53 48 40 15 356 357 334 316 314 294 295 284 291 295 298 281 272 263 254 253 248 224 232 254 254 238 230 226 219 212 212 212
117 118 119 112 103 101 97 94 93 89 85 96 107 125 142 321 322 339 340 321 301 285 279 274 280 289 291 292 278 260 254 258 211 194 218 262 270 245 231 216 213 212 205
154 149 139 138 136 141 151 145 148 136 128 117 86 51 37 18 4 347 329 315 304 282 272 263 259 273 279 290 288 268 246 250 255 202 194 202 229 255 255 222 216 207 200
171 170 166 169 172 177 171 166 165 161 155 134 119 124 135 225 252 262 283 304 308 296 279 264 252 249 254 285 298 306 262 241 248 257 233 225 210 197 264 292 232 209 201
183 184 183 185 189 184 178 179 174 182 185 170 163 161 191 223 250 276 298 302 304 302 290 267 246 238 240 254 281 303 302 270 249 237 239 244 248 214 184 231 257 253 221
193 193 193 188 194 191 185 185 185 215 222 208 197 194 213 235 261 280 286 289 291 295 295 275 247 237 234 240 252 266 288 293 284 256 222 211 223 227 191 198 209 219 245
201 202 198 198 202 199 194 180 182 240 258 246 245 238 234 237 246 257 260 268 278 278 273 268 252 245 241 240 238 245 256 269 285 277 248 220 225 222 206 188 199 209 254
207 197 191 186 174 153 146 145 159 261 291 280 276 270 260 251 254 253 249 253 251 256 263 261 249 245 242 239 228 229 242 243 252 264 259 229 227 220 212 190 177 184 235
200 177 149 135 129 112 110 127 138 243 295 289 286 285 283 274 269 270 266 265 264 270 274 268 260 253 247 241 231 229 236 237 243 246 245 233 235 226 224 208 181 173 186
152 143 130 122 121 126 127 113 128 213 275 291 288 297 287 283 279 282 283 280 278 278 284 279 269 262 255 245 233 235 236 231 239 234 233 230 221 228 217 207 202 193 179
147 134 128 127 123 110 100 63 333 307 301 299 297 305 297 291 291 284 278 275 273 274 270 268 266 264 259 251 238 236 235 230 236 236 229 232 221 215 216 203 195 199 185
141 138 134 120 98 67 336 316 305 301 291 290 296 297 294 293 291 283 278 274 272 270 265 264 262 261 260 250 240 242 241 229 229 230 225 229 225 215 212 204 201 200 202
133 123 110 99 269 275 288 296 298 295 297 300 302 302 298 291 284 279 278 275 272 271 269 264 258 257 256 250 243 238 238 233 229 224 219 221 213 217 213 206 202 203 204
140 148 189 269 271 275 283 292 297 294 299 302 299 295 289 283 281 281 281 278 274 273 269 264 259 255 253 251 248 244 239 235 232 225 220 217 209 211 206 207 205 198 195
149 161 207 254 273 281 288 290 290 294 296 298 296 289 288 288 287 287 285 283 280 281 272 267 264 258 255 254 250 244 246 235 233 230 225 222 217 215 207 202 199 194 190
170 196 243 273 278 274 276 284 286 289 290 295 293 293 296 295 292 288 286 285 282 279 275 268 263 261 266 268 264 250 247 239 231 231 230 231 226 221 215 211 202 193 189
191 234 262 263 261 256 257 267 279 289 299 297 296 298 297 294 290 293 295 286 282 276 274 270 264 258 258 259 259 254 243 234 231 229 226 234 228 213 209 211 209 207 205
208 244 254 256 255 257 264 274 289 300 302 300 298 299 299 296 294 292 289 284 277 274 271 270 265 260 263 262 257 255 245 235 231 227 221 220 224 212 200 197 197 197 203
199 213 221 225 255 273 276 293 303 304 304 300 297 297 297 297 299 298 293 287 283 280 274 269 264 261 265 262 257 252 241 235 234 231 225 216 219 216 197 187 190 195 207
188 203 227 246 290 280 283 302 301 303 298 294 293 295 295 296 298 294 291 287 283 280 282 278 268 262 263 262 257 247 232 234 235 232 228 219 213 211 195 189 187 193 200
187 183 187 274 275 278 292 301 300 294 287 291 297 299 298 297 293 291 289 290 289 289 287 285 281 272 266 268 261 247 225 224 225 225 220 216 207 207 202 195 193 198 184
201 189 235 283 283 288 298 299 294 287 293 298 301 302 302 302 307 300 298 295 293 294 294 293 294 287 280 273 266 251 232 220 215 217 215 214 208 207 203 199 204 193 176
214 216 241 289 295 294 290 289 288 295 303 306 305 304 305 303 300 297 299 301 297 291 294 295 296 299 301 297 286 265 243 224 212 215 215 212 205 197 198 202 194 179 168
217 217 258 297 294 293 296 283 289 300 306 307 307 307 307 306 305 300 294 294 293 292 292 293 295 299 304 310 317 298 256 223 217 218 213 198 185 176 176 178 184 174 173
212 206 233 269 280 290 297 296 300 308 309 308 307 308 303 301 304 302 292 288 274 260 267 275 277 291 299 299 299 285 250 207 196 172 152 140 144 160 166 165 167 170 171
196 215 251 269 276 287 295 297 300 305 308 311 312 307 305 305 304 306 307 298 284 282 266 258 259 269 274 296 300 289 259 226 189 165 163 174 179 183 183 179 179 181 184